(10) Hygiea
ephemeris date magn radius delta ra dec elong phase
Today6 May 202511.93.488 AU4.480 AU03h26m+20°58'9.3°2.7°
Opposition21 Dec 202510.33.415 AU2.431 AU06h02m+24°38'178.4°0.5°
(10) Hygiea - 2025-05-06
astro.vanbuitenen.nl


 
-1 year
-1 month
-1 day
Now
+1 day
+1 month
+1 year

The interactive orbit chart above shows the body's path through the solar system and its position at the given date. Green and blue lines are shown perpendicular to the ecliptic plane: Green if the path is above the ecliptic plane, blue if it is below. (Left-click and drag to rotate the view; Right-click and drag to move the view; Use scroll wheel to zoom in our out.)

The orbital elements of Hygiea are:

            e (Eccentricity)                : 0.1096266
            a (Semimajor axis)              : 3.1436334
            i (Inclination)                 : 3.83243
            Ω (Longitude of ascending node) : 283.12779
            ω (Argument of perihelion)      : 312.70565
            M (Mean anomaly)                : 181.27891
            Epoch                           : 2025 May 05

            L (Longitude of perihelion)     : 235.89737
            B (Latitude of perihelion)      : -2.81529
            P (Orbital period in years)     : 5.57            
        

The light curve chart below shows the estimated development of the minor planet's magnitude.


The all-sky chart below shows the path of the minor planet over the same period as the light curve. The current position is marked yellow.





The following chart shows the path of the minor planet in the next few days. The field of view is optimized for (~10x50) binoculars and finderscopes. A more printer-friendly version of the same chart can be found below.




Ephemerides:
Date       Time       RA (2000)    DEC (2000)    delta   radius  elong  phase   PA    magn
2025-05-06 00:00 UT   03 26 06.1   +20 58 00     4.480    3.488    9.3    2.7    62   11.9 
2025-05-06 07:33 UT   03 26 31.8   +20 59 25     4.481    3.488    9.1    2.6    62   11.9 
2025-05-07 00:00 UT   03 27 27.7   +21 02 28     4.482    3.488    8.7    2.5    62   11.9 
2025-05-08 00:00 UT   03 28 49.4   +21 06 53     4.484    3.488    8.1    2.3    61   11.9 
2025-05-09 00:00 UT   03 30 11.2   +21 11 17     4.487    3.488    7.5    2.2    59   11.9 
2025-05-10 00:00 UT   03 31 33.1   +21 15 39     4.488    3.488    6.8    2.0    58   11.9 
2025-05-11 00:00 UT   03 32 55.2   +21 19 59     4.490    3.488    6.2    1.8    56   11.8 
2025-05-12 00:00 UT   03 34 17.3   +21 24 17     4.492    3.488    5.6    1.6    54   11.8 
2025-05-13 00:00 UT   03 35 39.5   +21 28 33     4.493    3.488    5.1    1.5    52   11.8 
2025-05-14 00:00 UT   03 37 01.8   +21 32 47     4.494    3.488    4.5    1.3    49   11.8 
2025-05-15 00:00 UT   03 38 24.3   +21 36 59     4.496    3.488    3.9    1.1    44   11.8 
2025-05-16 00:00 UT   03 39 46.8   +21 41 09     4.497    3.488    3.4    1.0    39   11.8 
2025-05-17 00:00 UT   03 41 09.3   +21 45 17     4.497    3.488    2.9    0.8    31   11.8 
2025-05-18 00:00 UT   03 42 32.0   +21 49 23     4.498    3.488    2.5    0.7    21   11.8 
2025-05-19 00:00 UT   03 43 54.8   +21 53 27     4.498    3.488    2.2    0.6     8   11.7 
2025-05-20 00:00 UT   03 45 17.6   +21 57 29     4.499    3.488    2.1    0.6   351   11.7 
2025-05-21 00:00 UT   03 46 40.5   +22 01 29     4.499    3.488    2.1    0.6   334   11.7 
2025-05-22 00:00 UT   03 48 03.5   +22 05 27     4.499    3.487    2.4    0.7   319   11.7 
2025-05-23 00:00 UT   03 49 26.5   +22 09 22     4.498    3.487    2.7    0.8   307   11.8 
2025-05-24 00:00 UT   03 50 49.6   +22 13 15     4.498    3.487    3.2    0.9   298   11.8 
2025-05-25 00:00 UT   03 52 12.7   +22 17 06     4.497    3.487    3.7    1.1   292   11.8 
2025-05-26 00:00 UT   03 53 35.9   +22 20 55     4.497    3.487    4.2    1.2   287   11.8 
2025-05-27 00:00 UT   03 54 59.1   +22 24 41     4.496    3.487    4.8    1.4   283   11.8 
2025-05-28 00:00 UT   03 56 22.4   +22 28 25     4.495    3.487    5.3    1.5   281   11.8 
2025-05-29 00:00 UT   03 57 45.7   +22 32 07     4.493    3.487    5.9    1.7   278   11.8 
2025-05-30 00:00 UT   03 59 09.0   +22 35 46     4.492    3.487    6.5    1.9   276   11.9 
2025-05-31 00:00 UT   04 00 32.3   +22 39 23     4.491    3.487    7.1    2.1   275   11.9 
2025-06-01 00:00 UT   04 01 55.7   +22 42 58     4.489    3.487    7.7    2.2   274   11.9 


    Terminology:
            
    delta:  distance between minor planet and earth in AU
    radius: distance between minor planet and sun in AU
    magn:   magnitude (brightness) estimate    
    ra:     right ascension in hours (24h = 360deg)
    dec:    declination in degrees
    elong:  elongation in degrees (angle sun-earth-minor planet)    
    phase:  phase angle in degrees (angle sun-minor planet-earth)        
    AU:     Astronomical Unit (mean distance between earth and sun: 149597870.7 km
    

Orbital elements provided by the MPC (Minor Planet Center).
Calculations by a modified version of AAPlus, a C# implementation of the AA+ project by PJ Naughter from the algorithms presented in the book "Astronomical Algorithms" by Jean Meeus.
NGC2000 dso catalog and star labels from VizieR as provided by the Strasbourg astronomical Data Center.
Tycho2 catalog from the ESO archive.